Weather History for Lawrence, MA

Change the Weather History Date:

Monday, December 31, 2012

  Actual Average Record
Temperature  
Mean Temperature 26 °F -  
Max Temperature 34 °F 35 °F 63 °F (1932)
Min Temperature 17 °F 17 °F -14 °F (1963)
Degree Days  
Heating Degree Days 40    
Moisture  
Dew Point 16 °F    
Average Humidity 62    
Maximum Humidity 68    
Minimum Humidity 53    
Precipitation  
Precipitation 0.02 in - - ()
Sea Level Pressure  
Sea Level Pressure 29.93 in    
Wind  
Wind Speed 7 mph (SW)    
Max Wind Speed 16 mph    
Max Gust Speed 22 mph    
Visibility 10 miles    
Events      
Averages and records for this station are not official NWS values.
T = Trace of Precipitation, MM = Missing Value Source: NWS Daily Summary

Daily Weather History Graph

Daily Weather History Graph

Search for Another Location

Airport:

Trip Planner

Search our weather history database for the weather conditions in past years. The results will help you decide how hot, cold, wet, or windy it might be!

Date:

Astronomy

Dec. 31, 2012 Rise Set
Actual Time 7:14 AM EST 4:20 PM EST
Civil Twilight 6:42 AM EST 4:52 PM EST
Nautical Twilight 6:07 AM EST 5:28 PM EST
Astronomical Twilight 5:32 AM EST 6:02 PM EST
Moon 7:53 PM EST (12/31) 8:50 AM EST (12/31)
Length of Visible Light 10h 10m
Length of Day
9h 06m
Waning Gibbous, 90% of the Moon is Illuminated
Dec 31
Waning Gibbous
Jan 4
Last Quarter
Jan 11
New
Jan 18
First Quarter
Jan 26
Full

Hourly Weather History & Observations

Time (EST) Temp. Windchill Dew Point Humidity Pressure Visibility Wind Dir Wind Speed Gust Speed Precip Events Conditions
12:54 AM 21.0 °F 12.4 °F 6.1 °F 53% 29.96 in 10.0 mi West 6.9 mph 16.1 mph N/A   Clear
1:54 AM 19.9 °F 11.1 °F 6.1 °F 55% 29.96 in 10.0 mi WNW 6.9 mph - N/A   Clear
2:54 AM 21.9 °F 12.5 °F 7.0 °F 53% 29.99 in 10.0 mi WNW 8.1 mph - N/A   Clear
3:54 AM 21.0 °F 14.6 °F 7.0 °F 55% 30.00 in 10.0 mi West 4.6 mph - N/A   Clear
4:54 AM 17.1 °F - 7.0 °F 65% 30.00 in 10.0 mi Calm Calm - N/A   Clear
5:54 AM 17.1 °F 10.0 °F 8.1 °F 68% 30.01 in 10.0 mi SSW 4.6 mph - N/A   Clear
6:54 AM 19.9 °F 12.1 °F 9.0 °F 62% 30.02 in 10.0 mi South 5.8 mph - N/A   Clear
7:54 AM 19.9 °F 11.1 °F 10.0 °F 65% 30.02 in 10.0 mi SSW 6.9 mph - N/A   Clear
8:54 AM 24.1 °F 14.4 °F 12.0 °F 60% 30.02 in 10.0 mi SW 9.2 mph - N/A   Clear
9:54 AM 25.0 °F 18.1 °F 12.9 °F 60% 30.02 in 10.0 mi SW 5.8 mph - N/A   Mostly Cloudy
10:54 AM 28.9 °F 19.2 °F 17.1 °F 61% 29.99 in 10.0 mi WSW 11.5 mph - N/A   Overcast
11:54 AM 30.9 °F 19.8 °F 19.9 °F 64% 29.96 in 10.0 mi WSW 16.1 mph - N/A   Overcast
12:54 PM 33.1 °F 23.0 °F 21.9 °F 64% 29.93 in 10.0 mi West 15.0 mph 21.9 mph N/A   Overcast
1:54 PM 34.0 °F 25.5 °F 21.9 °F 61% 29.91 in 10.0 mi WSW 11.5 mph - 0.02 in   Overcast
2:54 PM 33.1 °F 25.5 °F 21.9 °F 64% 29.91 in 10.0 mi WSW 9.2 mph - N/A   Overcast
3:54 PM 33.1 °F 26.1 °F 21.9 °F 64% 29.91 in 10.0 mi WSW 8.1 mph - N/A   Overcast
4:54 PM 30.9 °F 22.8 °F 21.0 °F 67% 29.89 in 10.0 mi WSW 9.2 mph - N/A   Clear
5:54 PM 30.9 °F 25.2 °F 21.0 °F 67% 29.87 in 10.0 mi SW 5.8 mph - N/A   Clear
6:54 PM 30.9 °F 27.5 °F 21.0 °F 67% 29.87 in 10.0 mi SSW 3.5 mph - N/A   Clear
7:54 PM 30.9 °F 26.2 °F 21.0 °F 67% 29.86 in 10.0 mi SSW 4.6 mph - N/A   Clear
8:54 PM 30.9 °F 26.2 °F 21.0 °F 67% 29.83 in 10.0 mi SSW 4.6 mph - N/A   Clear
9:54 PM 32.0 °F 26.4 °F 19.4 °F 60% 29.80 in 10.0 mi SW 5.8 mph - N/A   Scattered Clouds
10:54 PM 33.1 °F 25.5 °F 21.0 °F 61% 29.78 in 10.0 mi WSW 9.2 mph - N/A   Overcast
11:54 PM 33.1 °F 26.1 °F 21.0 °F 61% 29.77 in 10.0 mi SW 8.1 mph - N/A   Overcast